| time (UTC) | temp F | wind direction | speed MPH | gust MPH | rain 1hr in | rain 24hr in | rain mn in | humidity % | barometer mb |
| 20260508171744 | 43 | 20 | 16.0 | 0.0 | 0.00 | 0.00 | 0.00 | 99 | |
| 20260508161945 | 45 | 20 | 12.0 | 0.0 | 0.00 | 0.00 | 0.00 | 99 | |
| 20260508151746 | 45 | 10 | 9.0 | 0.0 | 0.00 | 0.00 | 0.00 | 99 | |
| 20260508141746 | 45 | 20 | 9.0 | 0.0 | 0.00 | 0.00 | 0.00 | 99 | |
| 20260508131844 | 45 | 10 | 9.0 | 0.0 | 0.00 | 0.00 | 0.00 | 99 | |
| 20260508121744 | 46 | 10 | 9.0 | 0.0 | 0.00 | 0.00 | 0.00 | 99 | |
| 20260508111746 | 45 | 20 | 7.0 | 0.0 | 0.00 | 0.00 | 0.00 | 99 | |
| 20260508101945 | 45 | 360 | 5.0 | 0.0 | 0.00 | 0.00 | 0.00 | 99 | |
| 20260508091745 | 43 | 10 | 2.0 | 0.0 | 0.00 | 0.00 | 0.00 | 99 | |
| 20260508081744 | 43 | 20 | 5.0 | 0.0 | 0.00 | 0.00 | 0.00 | 99 | |
| 20260508071846 | 43 | 10 | 9.0 | 0.0 | 0.00 | 0.00 | 0.00 | 99 | |
| 20260508061746 | 41 | 10 | 9.0 | 0.0 | 0.00 | 0.00 | 0.00 | 99 | |
| 20260508051745 | 39 | 10 | 7.0 | 0.0 | 0.00 | 0.00 | 0.00 | 99 | |
| 20260508041946 | 39 | 10 | 12.0 | 0.0 | 0.00 | 0.00 | 0.00 | 99 | |
| 20260508031745 | 39 | 360 | 12.0 | 0.0 | 0.00 | 0.00 | 0.00 | 99 | |
| 20260508021745 | 39 | 10 | 14.0 | 0.0 | 0.00 | 0.00 | 0.00 | 99 | |
| 20260508011844 | 39 | 360 | 12.0 | 0.0 | 0.00 | 0.00 | 0.00 | 99 | |
| 20260508001744 | 41 | 360 | 16.0 | 0.0 | 0.00 | 0.00 | 0.00 | 99 | |
| 20260507231744 | 41 | 360 | 12.0 | 0.0 | 0.00 | 0.00 | 0.00 | 99 | |
| 20260507222046 | 41 | 10 | 14.0 | 0.0 | 0.00 | 0.00 | 0.00 | 99 | |
| 20260507211746 | 41 | 10 | 12.0 | 0.0 | 0.00 | 0.00 | 0.00 | 99 | |
| 20260507201746 | 41 | 10 | 16.0 | 0.0 | 0.00 | 0.00 | 0.00 | 99 | |
| 20260507191846 | 43 | 10 | 12.0 | 0.0 | 0.00 | 0.00 | 0.00 | 99 | |
| 20260507181745 | 43 | 360 | 20.0 | 0.0 | 0.00 | 0.00 | 0.00 | 99 |